Regional Weather Roundup
Issued by NWS Upton, NY

Current Version | Previous Version | Graphics & Text | Print | Product List | Glossary Off
Versions: 1 2 3 4 5 6 7 8 9 10 11 12 13 14 15 16 17 18 19 20 21 22 23 24 25 26 27 28 29 30 31 32 33 34 35 36 37 38 39 40 41 42 43 44 45 46 47 48 49 50

101
ASUS41 KOKX 120608
RWROKX

REGIONAL WEATHER ROUNDUP
NATIONAL WEATHER SERVICE NEW YORK NY
100 AM EST TUE DEC 12 2017

NOTE: "FAIR" INDICATES FEW OR NO CLOUDS BELOW 12,000 FEET WITH NO
SIGNIFICANT WEATHER AND/OR OBSTRUCTIONS TO VISIBILITY.

NYZ071-072-176-178-NJZ106-104-120700-
NEW YORK CITY METRO AREA

CITY           SKY/WX    TMP DP  RH WIND       PRES   REMARKS
Central Park   CLOUDY    39  25  57 VRB5      29.92F
Bronx Bot Gard   N/A     37  25  60 S3        29.92S
Bronx Lehman C   N/A     41  27  56 SE3         N/A
LaGuardia APRT CLOUDY    41  26  55 S9        29.91F
Queens College   N/A     37  27  65 SE6         N/A  WCI  33
Kennedy INTL   NOT AVBL
Breezy Point     N/A     41 N/A N/A S10         N/A
Brooklyn Coll    N/A     41  27  56 S5          N/A
Staten Island    N/A     39  27  60 SE6         N/A  WCI  35
Newark/Liberty CLOUDY    39  25  57 SE3       29.91F
Teterboro      CLOUDY    39  24  55 S6        29.90F WCI  35
$$

NYZ177-179-078>081-120700-
LONG ISLAND NEW YORK

CITY           SKY/WX    TMP DP  RH WIND       PRES   REMARKS
Jones Beach      N/A     41 N/A N/A SW7         N/A
Wantagh          N/A     36  27  69 E3          N/A
Matinecock PT    N/A     36 N/A N/A SE5         N/A  WCI  32
Farmingdale    CLOUDY    33  26  75 CALM      29.93F
MacArthur/ISP  CLOUDY    34  26  72 E5        29.92F WCI  30
Shirley        CLOUDY    31  27  85 CALM      29.94F
Mt Sinai Harb    N/A    N/A N/A N/A CALM        N/A
Westhampton    CLOUDY    30  25  81 CALM      29.95F
East Hampton   CLOUDY    30  26  85 CALM      29.94F
Southold         N/A     34  30  86 E3          N/A
Montauk          N/A     35  29  78 CALM      29.96F
$$

NYZ052-065-067-120700-
HUDSON VALLEY

CITY           SKY/WX    TMP DP  RH WIND       PRES   REMARKS
White Plains   MOCLDY    34  23  64 E5        29.89F WCI  30
Larchmont Harb   N/A     37 N/A N/A E9          N/A  WCI  31
Croton On Huds   N/A     36 N/A N/A E2          N/A
Somers           N/A     32  23  69 SE5         N/A  WCI  27
Brewster         N/A     32  25  74 CALM        N/A
Newburgh       FLURRIES  32  27  80 CALM      29.90F
Montgomery     CLOUDY    31  26  82 CALM      29.87F
Otisville        N/A     30  25  80 NE1         N/A
Warwick          N/A     34  25  69 SE9         N/A  WCI  26
Suffern          N/A     34  25  69 E1          N/A
Poughkeepsie   CLOUDY    34  23  64 VRB3      29.90F
Albany         CLOUDY    30  19  63 CALM      29.88F
$$

NJZ001-105-106-008-010-013-015-019>022-104-120700-
NEW JERSEY

CITY           SKY/WX    TMP DP  RH WIND       PRES   REMARKS
Newark/Liberty CLOUDY    39  25  57 SE3       29.91F
Teterboro      CLOUDY    39  24  55 S6        29.90F WCI  35
Caldwell       CLOUDY    37  22  54 CALM      29.90F
Somerville     MOCLDY    33  25  72 CALM      29.87F
Linden         FAIR      37  24  59 CALM      29.90F
Perth Amboy      N/A     37 N/A N/A SE7         N/A  WCI  32
Sussex         CLOUDY    35  24  64 VRB5      29.86F WCI  31
Andover        NOT AVBL
Trenton        MOCLDY    33  23  66 E5        29.88F WCI  29
Millville      MOCLDY    35  33  92 SE5       29.86F WCI  31
Atlantic City  CLOUDY    41  32  70 S7        29.89F
Wrightstown    MOCLDY    31  24  76 SE5       29.86F WCI  26
Toms River     CLOUDY    30  28  92 CALM      29.90F
Belmar         CLOUDY    36  27  69 SE6       29.90F WCI  31
$$

PAZ047>061-062-071-120700-
EASTERN PENNSYLVANIA

CITY           SKY/WX    TMP DP  RH WIND       PRES   REMARKS
Philadelphia   CLOUDY    36  27  69 E3        29.87F
Allentown      MOCLDY    36  22  56 VRB3      29.84F
Scranton       CLOUDY    35  23  61 S6        29.77F WCI  30
$$

CTZ002-004>006-009-010-012-RIZ004-006-007-MAZ004-011-015-120700-
SOUTHERN NEW ENGLAND
 IN CT

CITY           SKY/WX    TMP DP  RH WIND       PRES   REMARKS
Bradley INTL   FLURRIES  31  23  72 NW3       29.94F
Hartford       CLOUDY    33  25  72 CALM      29.95F
Danbury        CLOUDY    33  23  66 SE5       29.91F WCI  29
Wtrbury/Oxford CLOUDY    32  19  58 SE6       29.90F WCI  26
Norwalk Harbor   N/A     37 N/A N/A S9          N/A  WCI  31
Bridgeport     MOCLDY    38  25  59 S5        29.93F WCI  34
Meriden        CLOUDY    31  25  78 CALM      29.93F
New Haven      MOCLDY    34  23  64 CALM      29.93F
Chester        MOCLDY    34  21  60 CALM      29.93F
Groton         CLOUDY    35  24  64 N3        29.95F
Wilimantic     CLOUDY    31  25  78 CALM      29.96F

 IN RI

CITY           SKY/WX    TMP DP  RH WIND       PRES   REMARKS
Providence     CLOUDY    34  27  75 CALM      29.98F
Block Island     N/A    N/A N/A N/A MISG        N/A
Westerly       CLOUDY    33  26  75 CALM      29.96F
 IN MA

CITY           SKY/WX    TMP DP  RH WIND       PRES   REMARKS
Boston         CLOUDY    35  23  61 E6        29.99F WCI  30
Worcester      CLOUDY    29  16  58 SE7       29.92F WCI  22
Westfield      CLOUDY    30  25  81 CALM      29.93F
Provincetown   CLOUDY    33  26  75 CALM      30.00F
Nantucket      CLOUDY    37  30  75 E6        29.98F WCI  32
$$

ANZ330-335-338-340-345-350-353-355-120700-
COASTAL MARINE OBSERVATIONS


STATION/POSITION TIME  SKY/WX   TEMP    WIND        PRES    VSBY  WAVE
                                AIR SEA DIR/SP/G                  HT/PER
                 (UTC)          (F)     (DEG/KT/KT) (MB)    (MI)  (FT/S)
NY HARB ENTRANCE 0450            43 51  190/ 12/ 16 1013.6          2/ 9
20 S FIRE ISLAND 0450            44 53  210/ 12/ 14 1014.5          2/ 9
GREAT SOUTH BAY  0530            38 45   60/  4/  6   N/A
HUDSON CANYON    0450            45 56  210/  8/ 12 1014.9          3/ 8
KINGS POINT      0530            38 45  160/  3/  5 1014.2
EXECUTION ROCKS  0530            39     130/  6/  8   N/A
WESTERN LI SOUND 0449            39     150/  6/  8   N/A           0
CENTRAL LI SOUND 0515            41     170/  6/  8   N/A           0
ROBBINS REEF     0536            41     170/ 12/ 15 1013.7
$$


>>>>>>>>>>>>>>>>>>>>>>>>>>>> KEY <<<<<<<<<<<<<<<<<<<<<<<<<<<
>                                                          <
>     SKY/WX - Sky Condition/Present Weather               <
>     TMP    - Temperature in Fahrenheit                   <
>     DP     - Dew Point in Fahrenheit                     <
>     RH     - Relative Humidity in Percent                <
>     WIND   - Direction (from) and Speed in MPH           <
>     PRES   - Mean Sea Level Pressure (inches of Hg)      <
>     WCI    - Wind Chill Index                            <
>     VSB    - VISIBILITY IN MILES                         <
>     HX     - HEAT INDEX                                  <
>     TC     - TEMPERATURE IN CELSIUS                      <
>     VRB    - VARIABLE WIND DIRECTION                     <
>                                                          <
>>>>>>>>>>>>>>>>>>>>>>>>>>>> KEY <<<<<<<<<<<<<<<<<<<<<<<<<<<




USA.gov is the U.S. government's official web portal to all federal, state and local government web resources and services.